Time,TemperatureF,DewpointF,PressureIn,WindDirection,WindDirectionDegrees,WindSpeedMPH,WindSpeedGustMPH,Humidity,HourlyPrecipIn,Conditions,Clouds,dailyrainin,SoftwareType,DateUTC
2013-01-29 00:01:00,43.7,7.3,30.23,West,259,0.0,0.0,22,0.00,,,0.00,Wunderground v.1.15,2013-01-29 05:01:00,
2013-01-29 00:05:00,43.5,7.1,30.23,West,259,0.0,0.0,22,0.00,,,0.00,Wunderground v.1.15,2013-01-29 05:05:00,
2013-01-29 00:10:00,43.5,6.1,30.23,West,259,0.0,0.0,21,0.00,,,0.00,Wunderground v.1.15,2013-01-29 05:10:00,
2013-01-29 00:15:00,43.5,5.0,30.23,West,259,0.0,0.0,20,0.00,,,0.00,Wunderground v.1.15,2013-01-29 05:15:00,
2013-01-29 00:20:00,43.3,5.9,30.23,West,259,0.0,0.0,21,0.00,,,0.00,Wunderground v.1.15,2013-01-29 05:20:00,
2013-01-29 00:25:00,43.1,7.7,30.23,West,259,0.0,0.0,23,0.00,,,0.00,Wunderground v.1.15,2013-01-29 05:25:00,
2013-01-29 00:30:00,42.7,8.4,30.23,West,259,0.0,0.0,24,0.00,,,0.00,Wunderground v.1.15,2013-01-29 05:30:00,
2013-01-29 00:35:00,42.5,7.2,30.23,West,259,0.0,0.0,23,0.00,,,0.00,Wunderground v.1.15,2013-01-29 05:35:00,
2013-01-29 00:40:00,42.5,5.2,30.22,West,259,0.0,0.0,21,0.00,,,0.00,Wunderground v.1.15,2013-01-29 05:40:00,
2013-01-29 00:45:00,42.4,5.2,30.22,West,259,0.0,0.0,21,0.00,,,0.00,Wunderground v.1.15,2013-01-29 05:45:00,
2013-01-29 00:50:00,42.3,6.1,30.22,West,259,0.0,0.0,22,0.00,,,0.00,Wunderground v.1.15,2013-01-29 05:50:00,
2013-01-29 00:55:00,42.0,5.8,30.22,West,259,0.0,0.0,22,0.00,,,0.00,Wunderground v.1.15,2013-01-29 05:55:00,
2013-01-29 01:00:00,41.9,5.8,30.22,West,259,0.0,0.0,22,0.00,,,0.00,Wunderground v.1.15,2013-01-29 06:00:00,
2013-01-29 01:05:00,41.7,5.6,30.22,West,259,0.0,0.0,22,0.00,,,0.00,Wunderground v.1.15,2013-01-29 06:05:00,
2013-01-29 01:15:00,41.5,5.4,30.22,West,259,0.0,0.0,22,0.00,,,0.00,Wunderground v.1.15,2013-01-29 06:15:00,
2013-01-29 01:20:00,41.4,4.3,30.22,West,259,0.0,0.0,21,0.00,,,0.00,Wunderground v.1.15,2013-01-29 06:20:00,
2013-01-29 01:25:00,41.3,5.2,30.21,West,259,0.0,0.0,22,0.00,,,0.00,Wunderground v.1.15,2013-01-29 06:25:00,
2013-01-29 01:30:00,41.2,4.1,30.21,West,259,0.0,0.0,21,0.00,,,0.00,Wunderground v.1.15,2013-01-29 06:30:00,
2013-01-29 01:35:00,41.0,5.0,30.21,West,259,0.0,0.0,22,0.00,,,0.00,Wunderground v.1.15,2013-01-29 06:35:00,
2013-01-29 01:45:00,40.7,4.7,30.21,West,259,0.0,0.0,22,0.00,,,0.00,Wunderground v.1.15,2013-01-29 06:45:00,
2013-01-29 01:50:00,40.6,4.7,30.21,West,259,0.0,0.0,22,0.00,,,0.00,Wunderground v.1.15,2013-01-29 06:50:00,
2013-01-29 01:55:00,40.4,4.5,30.21,West,259,0.0,0.0,22,0.00,,,0.00,Wunderground v.1.15,2013-01-29 06:55:00,
2013-01-29 02:00:00,40.4,4.5,30.21,West,259,0.0,0.0,22,0.00,,,0.00,Wunderground v.1.15,2013-01-29 07:00:00,
2013-01-29 02:05:00,41.2,3.1,30.21,West,259,0.0,0.0,20,0.00,,,0.00,Wunderground v.1.15,2013-01-29 07:05:00,
2013-01-29 02:10:00,41.9,3.7,30.21,West,259,0.0,0.0,20,0.00,,,0.00,Wunderground v.1.15,2013-01-29 07:10:00,
2013-01-29 02:20:00,41.3,4.2,30.21,West,259,0.0,0.0,21,0.00,,,0.00,Wunderground v.1.15,2013-01-29 07:20:00,
2013-01-29 02:25:00,40.5,7.4,30.22,West,259,0.0,0.0,25,0.00,,,0.00,Wunderground v.1.15,2013-01-29 07:25:00,
2013-01-29 02:30:00,40.0,6.9,30.21,West,259,0.0,0.0,25,0.00,,,0.00,Wunderground v.1.15,2013-01-29 07:30:00,
2013-01-29 02:35:00,39.7,6.7,30.21,West,259,0.0,0.0,25,0.00,,,0.00,Wunderground v.1.15,2013-01-29 07:35:00,
2013-01-29 02:40:00,39.4,6.4,30.21,West,259,0.0,0.0,25,0.00,,,0.00,Wunderground v.1.15,2013-01-29 07:40:00,
2013-01-29 02:50:00,39.0,5.2,30.21,West,259,0.0,0.0,24,0.00,,,0.00,Wunderground v.1.15,2013-01-29 07:50:00,
2013-01-29 02:55:00,38.8,5.0,30.21,West,259,0.0,0.0,24,0.00,,,0.00,Wunderground v.1.15,2013-01-29 07:55:00,
2013-01-29 03:00:00,38.7,4.0,30.21,West,259,0.0,0.0,23,0.00,,,0.00,Wunderground v.1.15,2013-01-29 08:00:00,
2013-01-29 03:10:00,38.5,2.9,30.21,West,259,0.0,0.0,22,0.00,,,0.00,Wunderground v.1.15,2013-01-29 08:10:00,
2013-01-29 03:15:00,38.5,1.9,30.21,West,259,0.0,0.0,21,0.00,,,0.00,Wunderground v.1.15,2013-01-29 08:15:00,
2013-01-29 03:25:00,38.7,2.0,30.21,West,259,0.0,0.0,21,0.00,,,0.00,Wunderground v.1.15,2013-01-29 08:25:00,
2013-01-29 03:30:00,38.8,2.1,30.21,West,259,0.0,0.0,21,0.00,,,0.00,Wunderground v.1.15,2013-01-29 08:30:00,
2013-01-29 03:35:00,38.8,2.1,30.21,West,259,0.0,0.0,21,0.00,,,0.00,Wunderground v.1.15,2013-01-29 08:35:00,
2013-01-29 03:40:00,38.8,2.1,30.21,West,259,0.0,0.0,21,0.00,,,0.00,Wunderground v.1.15,2013-01-29 08:40:00,
2013-01-29 03:45:00,38.9,2.2,30.21,West,259,0.0,0.0,21,0.00,,,0.00,Wunderground v.1.15,2013-01-29 08:45:00,
2013-01-29 03:55:00,39.1,1.3,30.21,West,259,0.0,0.0,20,0.00,,,0.00,Wunderground v.1.15,2013-01-29 08:55:00,
2013-01-29 04:00:00,39.2,1.4,30.21,West,259,0.0,0.0,20,0.00,,,0.00,Wunderground v.1.15,2013-01-29 09:00:00,
2013-01-29 04:05:00,39.3,1.5,30.21,West,259,0.0,0.0,20,0.00,,,0.00,Wunderground v.1.15,2013-01-29 09:05:00,
2013-01-29 04:10:00,39.3,1.5,30.21,West,259,0.0,0.0,20,0.00,,,0.00,Wunderground v.1.15,2013-01-29 09:10:00,
2013-01-29 04:15:00,39.3,2.5,30.21,West,259,0.0,0.0,21,0.00,,,0.00,Wunderground v.1.15,2013-01-29 09:15:00,
2013-01-29 04:20:00,39.3,2.5,30.21,West,259,0.0,0.0,21,0.00,,,0.00,Wunderground v.1.15,2013-01-29 09:20:00,
2013-01-29 04:30:00,39.6,2.8,30.20,West,259,0.0,0.0,21,0.00,,,0.00,Wunderground v.1.15,2013-01-29 09:30:00,
2013-01-29 04:35:00,39.8,3.0,30.20,West,259,0.0,0.0,21,0.00,,,0.00,Wunderground v.1.15,2013-01-29 09:35:00,
2013-01-29 04:40:00,39.9,3.1,30.20,West,259,0.0,0.0,21,0.00,,,0.00,Wunderground v.1.15,2013-01-29 09:40:00,
2013-01-29 04:45:00,39.8,3.0,30.20,West,259,0.0,0.0,21,0.00,,,0.00,Wunderground v.1.15,2013-01-29 09:45:00,
2013-01-29 04:50:00,39.9,3.1,30.20,West,259,0.0,0.0,21,0.00,,,0.00,Wunderground v.1.15,2013-01-29 09:50:00,
2013-01-29 04:55:00,40.5,3.6,30.20,West,259,0.0,0.0,21,0.00,,,0.00,Wunderground v.1.15,2013-01-29 09:55:00,
2013-01-29 05:00:00,41.2,4.1,30.19,West,259,0.0,0.0,21,0.00,,,0.00,Wunderground v.1.15,2013-01-29 10:00:00,
2013-01-29 05:05:00,41.7,4.6,30.20,West,259,0.0,0.0,21,0.00,,,0.00,Wunderground v.1.15,2013-01-29 10:05:00,
2013-01-29 05:10:00,40.9,3.9,30.19,West,259,0.0,0.0,21,0.00,,,0.00,Wunderground v.1.15,2013-01-29 10:10:00,
2013-01-29 05:15:00,39.9,6.9,30.20,West,259,0.0,0.0,25,0.00,,,0.00,Wunderground v.1.15,2013-01-29 10:15:00,
2013-01-29 05:20:00,39.2,7.1,30.20,West,259,0.0,0.0,26,0.00,,,0.00,Wunderground v.1.15,2013-01-29 10:20:00,
2013-01-29 05:30:00,38.9,3.2,30.19,West,259,0.0,0.0,22,0.00,,,0.00,Wunderground v.1.15,2013-01-29 10:30:00,
2013-01-29 05:35:00,39.3,2.5,30.19,West,259,0.0,0.0,21,0.00,,,0.00,Wunderground v.1.15,2013-01-29 10:35:00,
2013-01-29 05:40:00,39.7,2.9,30.19,West,259,0.0,0.0,21,0.00,,,0.00,Wunderground v.1.15,2013-01-29 10:40:00,
2013-01-29 05:45:00,39.6,2.8,30.18,West,259,0.0,0.0,21,0.00,,,0.00,Wunderground v.1.15,2013-01-29 10:45:00,
2013-01-29 05:50:00,39.7,2.9,30.18,West,259,0.0,0.0,21,0.00,,,0.00,Wunderground v.1.15,2013-01-29 10:50:00,
2013-01-29 05:55:00,40.0,2.1,30.18,West,259,0.0,0.0,20,0.00,,,0.00,Wunderground v.1.15,2013-01-29 10:55:00,
2013-01-29 06:00:00,40.7,3.7,30.18,West,259,0.0,0.0,21,0.00,,,0.00,Wunderground v.1.15,2013-01-29 11:00:00,
2013-01-29 06:10:00,41.0,4.0,30.18,West,259,0.0,0.0,21,0.00,,,0.00,Wunderground v.1.15,2013-01-29 11:10:00,
2013-01-29 06:15:00,41.4,4.3,30.18,West,259,0.0,0.0,21,0.00,,,0.00,Wunderground v.1.15,2013-01-29 11:15:00,
2013-01-29 06:20:00,41.9,3.7,30.18,West,259,0.0,0.0,20,0.00,,,0.00,Wunderground v.1.15,2013-01-29 11:20:00,
2013-01-29 06:25:00,42.4,4.1,30.18,West,259,0.0,0.0,20,0.00,,,0.00,Wunderground v.1.15,2013-01-29 11:25:00,
2013-01-29 06:35:00,42.6,9.2,30.18,West,259,0.0,0.0,25,0.00,,,0.00,Wunderground v.1.15,2013-01-29 11:35:00,
2013-01-29 06:40:00,42.4,12.3,30.18,West,259,0.0,0.0,29,0.00,,,0.00,Wunderground v.1.15,2013-01-29 11:40:00,
2013-01-29 06:45:00,42.0,14.9,30.18,West,259,0.0,0.0,33,0.00,,,0.00,Wunderground v.1.15,2013-01-29 11:45:00,
2013-01-29 06:50:00,41.6,17.8,30.18,West,259,0.0,0.0,38,0.00,,,0.00,Wunderground v.1.15,2013-01-29 11:50:00,
2013-01-29 06:55:00,40.9,18.4,30.18,West,259,0.0,0.0,40,0.00,,,0.00,Wunderground v.1.15,2013-01-29 11:55:00,
2013-01-29 07:00:00,40.6,15.0,30.18,West,259,0.0,0.0,35,0.00,,,0.00,Wunderground v.1.15,2013-01-29 12:00:00,
2013-01-29 07:10:00,40.6,5.6,30.18,West,259,0.0,0.0,23,0.00,,,0.00,Wunderground v.1.15,2013-01-29 12:10:00,
2013-01-29 07:15:00,40.5,7.4,30.19,West,259,0.0,0.0,25,0.00,,,0.00,Wunderground v.1.15,2013-01-29 12:15:00,
2013-01-29 07:20:00,40.1,9.6,30.19,West,259,0.0,0.0,28,0.00,,,0.00,Wunderground v.1.15,2013-01-29 12:20:00,
2013-01-29 07:25:00,39.8,9.3,30.19,West,259,0.0,0.0,28,0.00,,,0.00,Wunderground v.1.15,2013-01-29 12:25:00,
2013-01-29 07:30:00,39.6,9.1,30.19,West,259,0.0,0.0,28,0.00,,,0.00,Wunderground v.1.15,2013-01-29 12:30:00,
2013-01-29 07:40:00,39.1,7.0,30.19,West,259,0.0,0.0,26,0.00,,,0.00,Wunderground v.1.15,2013-01-29 12:40:00,
2013-01-29 07:45:00,38.9,6.9,30.19,West,259,0.0,0.0,26,0.00,,,0.00,Wunderground v.1.15,2013-01-29 12:45:00,
2013-01-29 07:50:00,38.8,6.8,30.20,West,259,0.0,0.0,26,0.00,,,0.00,Wunderground v.1.15,2013-01-29 12:50:00,
2013-01-29 07:55:00,38.6,5.7,30.20,West,259,0.0,0.0,25,0.00,,,0.00,Wunderground v.1.15,2013-01-29 12:55:00,
2013-01-29 08:00:00,38.4,4.7,30.20,West,259,0.0,0.0,24,0.00,,,0.00,Wunderground v.1.15,2013-01-29 13:00:00,
2013-01-29 08:05:00,38.4,3.8,30.20,West,259,0.0,0.0,23,0.00,,,0.00,Wunderground v.1.15,2013-01-29 13:05:00,
2013-01-29 08:15:00,38.3,2.7,30.20,West,259,0.0,0.0,22,0.00,,,0.00,Wunderground v.1.15,2013-01-29 13:15:00,
2013-01-29 08:20:00,38.3,3.7,30.19,West,259,0.0,0.0,23,0.00,,,0.00,Wunderground v.1.15,2013-01-29 13:20:00,
2013-01-29 08:25:00,38.3,3.7,30.19,West,259,0.0,0.0,23,0.00,,,0.00,Wunderground v.1.15,2013-01-29 13:25:00,
2013-01-29 08:30:00,38.3,2.7,30.20,West,259,0.0,0.0,22,0.00,,,0.00,Wunderground v.1.15,2013-01-29 13:30:00,
2013-01-29 08:35:00,38.4,2.8,30.19,West,259,0.0,0.0,22,0.00,,,0.00,Wunderground v.1.15,2013-01-29 13:35:00,
2013-01-29 08:45:00,38.8,2.1,30.19,West,259,0.0,0.0,21,0.00,,,0.00,Wunderground v.1.15,2013-01-29 13:45:00,
2013-01-29 08:50:00,39.1,2.4,30.19,West,259,0.0,0.0,21,0.00,,,0.00,Wunderground v.1.15,2013-01-29 13:50:00,
2013-01-29 08:55:00,39.4,2.6,30.19,West,259,0.0,0.0,21,0.00,,,0.00,Wunderground v.1.15,2013-01-29 13:55:00,
2013-01-29 09:00:00,39.6,2.8,30.20,West,259,0.0,0.0,21,0.00,,,0.00,Wunderground v.1.15,2013-01-29 14:00:00,
2013-01-29 09:10:00,40.3,3.4,30.19,West,259,0.0,0.0,21,0.00,,,0.00,Wunderground v.1.15,2013-01-29 14:10:00,
2013-01-29 09:15:00,40.7,2.7,30.19,West,259,0.0,0.0,20,0.00,,,0.00,Wunderground v.1.15,2013-01-29 14:15:00,
2013-01-29 09:20:00,41.0,2.9,30.19,West,259,0.0,0.0,20,0.00,,,0.00,Wunderground v.1.15,2013-01-29 14:20:00,
2013-01-29 09:25:00,41.5,3.3,30.19,West,259,0.0,0.0,20,0.00,,,0.00,Wunderground v.1.15,2013-01-29 14:25:00,
2013-01-29 09:35:00,42.4,4.1,30.19,West,259,0.0,0.0,20,0.00,,,0.00,Wunderground v.1.15,2013-01-29 14:35:00,
2013-01-29 09:40:00,42.9,4.5,30.19,West,259,0.0,0.0,20,0.00,,,0.00,Wunderground v.1.15,2013-01-29 14:40:00,
2013-01-29 09:45:00,43.7,5.2,30.19,West,259,0.0,0.0,20,0.00,,,0.00,Wunderground v.1.15,2013-01-29 14:45:00,
2013-01-29 09:50:00,44.5,5.8,30.19,West,259,0.0,0.0,20,0.00,,,0.00,Wunderground v.1.15,2013-01-29 14:50:00,
2013-01-29 09:55:00,45.4,6.6,30.19,West,259,0.0,0.0,20,0.00,,,0.00,Wunderground v.1.15,2013-01-29 14:55:00,
2013-01-29 10:00:00,46.4,7.4,30.20,West,259,0.0,0.0,20,0.00,,,0.00,Wunderground v.1.15,2013-01-29 15:00:00,
2013-01-29 10:05:00,47.4,8.3,30.20,West,259,0.0,0.0,20,0.00,,,0.00,Wunderground v.1.15,2013-01-29 15:05:00,
2013-01-29 10:10:00,48.4,10.2,30.19,West,259,0.0,0.0,21,0.00,,,0.00,Wunderground v.1.15,2013-01-29 15:10:00,
2013-01-29 10:20:00,50.5,23.1,30.19,West,259,0.0,0.0,34,0.00,,,0.00,Wunderground v.1.15,2013-01-29 15:20:00,
2013-01-29 10:25:00,51.4,27.2,30.19,West,259,0.0,0.0,39,0.00,,,0.00,Wunderground v.1.15,2013-01-29 15:25:00,
2013-01-29 10:30:00,52.1,31.4,30.19,West,259,0.0,0.0,45,0.00,,,0.00,Wunderground v.1.15,2013-01-29 15:30:00,
2013-01-29 10:35:00,53.0,36.3,30.19,WSW,244,0.0,1.0,53,0.00,,,0.00,Wunderground v.1.15,2013-01-29 15:35:00,
2013-01-29 10:40:00,54.0,40.0,30.19,WSW,244,0.0,0.0,59,0.00,,,0.00,Wunderground v.1.15,2013-01-29 15:40:00,
2013-01-29 10:45:00,54.9,42.1,30.18,WSW,244,0.0,0.0,62,0.00,,,0.00,Wunderground v.1.15,2013-01-29 15:45:00,
2013-01-29 10:55:00,56.5,45.3,30.18,WSW,244,0.0,0.0,66,0.00,,,0.00,Wunderground v.1.15,2013-01-29 15:55:00,
2013-01-29 11:00:00,57.1,46.2,30.18,WSW,244,0.0,0.0,67,0.00,,,0.00,Wunderground v.1.15,2013-01-29 16:00:00,
2013-01-29 11:05:00,57.6,46.7,30.18,WSW,244,0.0,0.0,67,0.00,,,0.00,Wunderground v.1.15,2013-01-29 16:05:00,
2013-01-29 11:10:00,57.9,47.0,30.17,SW,236,0.0,2.0,67,0.00,,,0.00,Wunderground v.1.15,2013-01-29 16:10:00,
2013-01-29 11:15:00,58.6,47.7,30.17,South,174,0.0,2.0,67,0.00,,,0.00,Wunderground v.1.15,2013-01-29 16:15:00,
2013-01-29 11:25:00,60.5,49.5,30.17,WSW,237,1.0,3.0,67,0.00,,,0.00,Wunderground v.1.15,2013-01-29 16:25:00,
2013-01-29 11:30:00,61.5,50.4,30.16,SW,229,2.0,4.0,67,0.00,,,0.00,Wunderground v.1.15,2013-01-29 16:30:00,
2013-01-29 11:35:00,62.6,51.5,30.16,SW,233,2.0,4.0,67,0.00,,,0.00,Wunderground v.1.15,2013-01-29 16:35:00,
2013-01-29 11:40:00,63.6,52.0,30.15,WSW,243,3.0,3.0,66,0.00,,,0.00,Wunderground v.1.15,2013-01-29 16:40:00,
2013-01-29 11:45:00,64.3,52.3,30.15,SW,233,2.0,3.0,65,0.00,,,0.00,Wunderground v.1.15,2013-01-29 16:45:00,
2013-01-29 11:50:00,64.8,52.3,30.15,SW,236,2.0,3.0,64,0.00,,,0.00,Wunderground v.1.15,2013-01-29 16:50:00,
2013-01-29 12:00:00,65.0,52.1,30.15,SW,223,3.0,4.0,63,0.00,,,0.00,Wunderground v.1.15,2013-01-29 17:00:00,
2013-01-29 12:10:00,65.2,52.3,30.14,West,262,2.0,2.0,63,0.00,,,0.00,Wunderground v.1.15,2013-01-29 17:10:00,
2013-01-29 12:15:00,65.4,52.0,30.13,SW,229,1.0,2.0,62,0.00,,,0.00,Wunderground v.1.15,2013-01-29 17:15:00,
2013-01-29 12:20:00,65.3,52.4,30.13,SW,218,2.0,2.0,63,0.00,,,0.00,Wunderground v.1.15,2013-01-29 17:20:00,
2013-01-29 12:30:00,65.7,52.8,30.12,WSW,238,2.0,2.0,63,0.00,,,0.00,Wunderground v.1.15,2013-01-29 17:30:00,
2013-01-29 12:35:00,66.1,53.1,30.11,SW,220,2.0,2.0,63,0.00,,,0.00,Wunderground v.1.15,2013-01-29 17:35:00,
2013-01-29 12:40:00,66.6,53.2,30.11,SW,231,1.0,2.0,62,0.00,,,0.00,Wunderground v.1.15,2013-01-29 17:40:00,
2013-01-29 12:45:00,66.9,53.0,30.11,SW,227,2.0,3.0,61,0.00,,,0.00,Wunderground v.1.15,2013-01-29 17:45:00,
2013-01-29 12:50:00,66.9,53.0,30.10,WSW,245,2.0,2.0,61,0.00,,,0.00,Wunderground v.1.15,2013-01-29 17:50:00,
2013-01-29 12:55:00,66.8,53.4,30.10,SW,227,2.0,2.0,62,0.00,,,0.00,Wunderground v.1.15,2013-01-29 17:55:00,
2013-01-29 13:05:00,67.5,54.0,30.09,SW,221,1.0,5.0,62,0.00,,,0.00,Wunderground v.1.15,2013-01-29 18:05:00,
2013-01-29 13:10:00,67.8,54.3,30.09,NW,313,1.0,5.0,62,0.00,,,0.00,Wunderground v.1.15,2013-01-29 18:10:00,
2013-01-29 13:15:00,67.8,53.9,30.09,West,264,1.0,5.0,61,0.00,,,0.00,Wunderground v.1.15,2013-01-29 18:15:00,
2013-01-29 13:20:00,67.6,53.7,30.09,WSW,237,1.0,5.0,61,0.00,,,0.00,Wunderground v.1.15,2013-01-29 18:20:00,
2013-01-29 13:25:00,67.3,53.8,30.09,SW,234,2.0,5.0,62,0.00,,,0.00,Wunderground v.1.15,2013-01-29 18:25:00,
2013-01-29 13:30:00,67.1,54.1,30.09,SW,234,2.0,2.0,63,0.00,,,0.00,Wunderground v.1.15,2013-01-29 18:30:00,
2013-01-29 13:35:00,67.2,54.2,30.08,SW,234,0.0,5.0,63,0.00,,,0.00,Wunderground v.1.15,2013-01-29 18:35:00,
2013-01-29 13:40:00,67.2,54.6,30.08,SW,234,0.0,5.0,64,0.00,,,0.00,Wunderground v.1.15,2013-01-29 18:40:00,
2013-01-29 13:45:00,67.0,54.4,30.08,WSW,238,1.0,5.0,64,0.00,,,0.00,Wunderground v.1.15,2013-01-29 18:45:00,
2013-01-29 13:50:00,66.8,54.2,30.08,WSW,239,1.0,5.0,64,0.00,,,0.00,Wunderground v.1.15,2013-01-29 18:50:00,
2013-01-29 13:55:00,66.5,54.4,30.08,SW,236,2.0,5.0,65,0.00,,,0.00,Wunderground v.1.15,2013-01-29 18:55:00,
2013-01-29 14:05:00,66.5,54.4,30.08,SW,227,2.0,5.0,65,0.00,,,0.00,Wunderground v.1.15,2013-01-29 19:05:00,
2013-01-29 14:10:00,66.6,54.5,30.08,SW,218,1.0,5.0,65,0.00,,,0.00,Wunderground v.1.15,2013-01-29 19:10:00,
2013-01-29 14:15:00,66.9,55.2,30.08,SW,234,1.0,5.0,66,0.00,,,0.00,Wunderground v.1.15,2013-01-29 19:15:00,
2013-01-29 14:20:00,67.0,54.8,30.08,SW,234,1.0,1.0,65,0.00,,,0.00,Wunderground v.1.15,2013-01-29 19:20:00,
2013-01-29 14:25:00,66.9,54.7,30.08,WSW,238,1.0,2.0,65,0.00,,,0.00,Wunderground v.1.15,2013-01-29 19:25:00,
2013-01-29 14:30:00,66.7,55.0,30.08,WSW,250,2.0,2.0,66,0.00,,,0.00,Wunderground v.1.15,2013-01-29 19:30:00,
2013-01-29 14:40:00,66.1,54.4,30.08,WSW,244,2.0,5.0,66,0.00,,,0.00,Wunderground v.1.15,2013-01-29 19:40:00,
2013-01-29 14:45:00,65.9,54.2,30.07,WSW,250,2.0,5.0,66,0.00,,,0.00,Wunderground v.1.15,2013-01-29 19:45:00,
2013-01-29 14:50:00,65.6,54.3,30.08,WSW,242,3.0,3.0,67,0.00,,,0.00,Wunderground v.1.15,2013-01-29 19:50:00,
2013-01-29 14:55:00,65.5,54.2,30.08,WSW,244,2.0,5.0,67,0.00,,,0.00,Wunderground v.1.15,2013-01-29 19:55:00,
2013-01-29 15:00:00,65.4,54.2,30.07,SW,236,2.0,2.0,67,0.00,,,0.00,Wunderground v.1.15,2013-01-29 20:00:00,
2013-01-29 15:10:00,65.1,53.9,30.07,SW,229,2.0,2.0,67,0.00,,,0.00,Wunderground v.1.15,2013-01-29 20:10:00,
2013-01-29 15:15:00,65.0,54.2,30.07,SW,229,1.0,2.0,68,0.00,,,0.00,Wunderground v.1.15,2013-01-29 20:15:00,
2013-01-29 15:20:00,65.0,54.2,30.07,SW,227,1.0,1.0,68,0.00,,,0.00,Wunderground v.1.15,2013-01-29 20:20:00,
2013-01-29 15:25:00,65.0,54.2,30.07,SW,235,1.0,1.0,68,0.00,,,0.00,Wunderground v.1.15,2013-01-29 20:25:00,
2013-01-29 15:30:00,65.0,54.2,30.07,SW,235,1.0,2.0,68,0.00,,,0.00,Wunderground v.1.15,2013-01-29 20:30:00,
2013-01-29 15:35:00,64.8,54.0,30.07,WSW,240,1.0,2.0,68,0.00,,,0.00,Wunderground v.1.15,2013-01-29 20:35:00,
2013-01-29 15:45:00,64.6,53.8,30.06,WSW,252,1.0,3.0,68,0.00,,,0.00,Wunderground v.1.15,2013-01-29 20:45:00,
2013-01-29 15:50:00,64.5,53.7,30.06,WSW,238,1.0,1.0,68,0.00,,,0.00,Wunderground v.1.15,2013-01-29 20:50:00,
2013-01-29 15:55:00,64.3,53.5,30.07,SW,217,1.0,1.0,68,0.00,,,0.00,Wunderground v.1.15,2013-01-29 20:55:00,
2013-01-29 16:00:00,64.1,53.3,30.06,SW,226,2.0,4.0,68,0.00,,,0.00,Wunderground v.1.15,2013-01-29 21:00:00,
2013-01-29 16:05:00,64.0,53.2,30.06,SW,229,2.0,4.0,68,0.00,,,0.00,Wunderground v.1.15,2013-01-29 21:05:00,
2013-01-29 16:15:00,63.9,53.1,30.06,SW,236,1.0,4.0,68,0.00,,,0.00,Wunderground v.1.15,2013-01-29 21:15:00,
2013-01-29 16:20:00,63.9,53.1,30.06,SW,236,1.0,4.0,68,0.00,,,0.00,Wunderground v.1.15,2013-01-29 21:20:00,
2013-01-29 16:25:00,63.8,53.0,30.06,SW,236,0.0,4.0,68,0.00,,,0.00,Wunderground v.1.15,2013-01-29 21:25:00,
2013-01-29 16:30:00,63.8,53.0,30.06,WSW,244,1.0,4.0,68,0.00,,,0.00,Wunderground v.1.15,2013-01-29 21:30:00,
2013-01-29 16:35:00,63.7,52.9,30.06,WSW,245,1.0,4.0,68,0.00,,,0.00,Wunderground v.1.15,2013-01-29 21:35:00,
2013-01-29 16:40:00,63.5,52.7,30.05,WSW,237,1.0,4.0,68,0.00,,,0.00,Wunderground v.1.15,2013-01-29 21:40:00,
2013-01-29 16:50:00,63.2,52.5,30.05,WSW,244,1.0,4.0,68,0.00,,,0.00,Wunderground v.1.15,2013-01-29 21:50:00,
2013-01-29 16:55:00,63.1,52.0,30.05,SW,232,1.0,4.0,67,0.00,,,0.00,Wunderground v.1.15,2013-01-29 21:55:00,
2013-01-29 17:00:00,63.0,51.9,30.05,SW,232,1.0,4.0,67,0.00,,,0.00,Wunderground v.1.15,2013-01-29 22:00:00,
2013-01-29 17:05:00,62.9,51.8,30.05,SW,232,1.0,4.0,67,0.00,,,0.00,Wunderground v.1.15,2013-01-29 22:05:00,
2013-01-29 17:10:00,62.8,51.7,30.05,SW,232,1.0,4.0,67,0.00,,,0.00,Wunderground v.1.15,2013-01-29 22:10:00,
2013-01-29 17:20:00,62.7,51.6,30.05,SW,232,1.0,4.0,67,0.00,,,0.00,Wunderground v.1.15,2013-01-29 22:20:00,
2013-01-29 17:25:00,62.6,51.5,30.05,SW,232,0.0,4.0,67,0.00,,,0.00,Wunderground v.1.15,2013-01-29 22:25:00,
2013-01-29 17:30:00,62.3,50.8,30.05,SW,232,0.0,4.0,66,0.00,,,0.00,Wunderground v.1.15,2013-01-29 22:30:00,
2013-01-29 17:35:00,62.1,50.2,30.05,WSW,258,0.0,4.0,65,0.00,,,0.00,Wunderground v.1.15,2013-01-29 22:35:00,
2013-01-29 17:40:00,61.9,49.6,30.06,WNW,298,1.0,4.0,64,0.00,,,0.00,Wunderground v.1.15,2013-01-29 22:40:00,
2013-01-29 17:45:00,61.7,49.4,30.06,WNW,289,1.0,4.0,64,0.00,,,0.00,Wunderground v.1.15,2013-01-29 22:45:00,
2013-01-29 17:55:00,61.3,48.2,30.06,West,263,1.0,4.0,62,0.00,,,0.00,Wunderground v.1.15,2013-01-29 22:55:00,
2013-01-29 18:00:00,61.2,47.6,30.06,West,263,1.0,1.0,61,0.00,,,0.00,Wunderground v.1.15,2013-01-29 23:00:00,
2013-01-29 18:10:00,60.7,46.7,30.05,West,263,0.0,0.0,60,0.00,,,0.00,Wunderground v.1.15,2013-01-29 23:10:00,
2013-01-29 18:15:00,60.6,45.3,30.05,West,279,1.0,1.0,57,0.00,,,0.00,Wunderground v.1.15,2013-01-29 23:15:00,
2013-01-29 18:25:00,60.2,44.9,30.06,SSW,205,0.0,0.0,57,0.00,,,0.00,Wunderground v.1.15,2013-01-29 23:25:00,
2013-01-29 18:30:00,60.0,44.7,30.06,WSW,256,0.0,0.0,57,0.00,,,0.00,Wunderground v.1.15,2013-01-29 23:30:00,
2013-01-29 18:35:00,59.9,44.6,30.06,WSW,256,0.0,0.0,57,0.00,,,0.00,Wunderground v.1.15,2013-01-29 23:35:00,
2013-01-29 18:40:00,59.8,44.1,30.06,WSW,256,0.0,0.0,56,0.00,,,0.00,Wunderground v.1.15,2013-01-29 23:40:00,
2013-01-29 18:45:00,59.6,42.9,30.06,West,264,0.0,0.0,54,0.00,,,0.00,Wunderground v.1.15,2013-01-29 23:45:00,
2013-01-29 18:50:00,59.5,42.3,30.06,West,264,0.0,0.0,53,0.00,,,0.00,Wunderground v.1.15,2013-01-29 23:50:00,
2013-01-29 19:00:00,59.3,41.7,30.06,West,264,0.0,3.0,52,0.00,,,0.00,Wunderground v.1.15,2013-01-30 00:00:00,
2013-01-29 19:05:00,59.2,41.6,30.05,West,264,0.0,3.0,52,0.00,,,0.00,Wunderground v.1.15,2013-01-30 00:05:00,
2013-01-29 19:10:00,59.0,40.4,30.05,West,264,0.0,3.0,50,0.00,,,0.00,Wunderground v.1.15,2013-01-30 00:10:00,
2013-01-29 19:15:00,58.9,39.8,30.05,West,264,0.0,3.0,49,0.00,,,0.00,Wunderground v.1.15,2013-01-30 00:15:00,
2013-01-29 19:20:00,58.7,39.6,30.05,West,264,0.0,3.0,49,0.00,,,0.00,Wunderground v.1.15,2013-01-30 00:20:00,
2013-01-29 19:30:00,58.5,36.6,30.05,West,264,0.0,3.0,44,0.00,,,0.00,Wunderground v.1.15,2013-01-30 00:30:00,
2013-01-29 19:35:00,58.4,37.7,30.05,West,264,0.0,3.0,46,0.00,,,0.00,Wunderground v.1.15,2013-01-30 00:35:00,
2013-01-29 19:40:00,58.3,37.0,30.05,West,264,0.0,3.0,45,0.00,,,0.00,Wunderground v.1.15,2013-01-30 00:40:00,
2013-01-29 19:45:00,58.2,35.8,30.05,West,264,0.0,3.0,43,0.00,,,0.00,Wunderground v.1.15,2013-01-30 00:45:00,
2013-01-29 19:50:00,58.1,36.3,30.05,West,264,0.0,3.0,44,0.00,,,0.00,Wunderground v.1.15,2013-01-30 00:50:00,
2013-01-29 19:55:00,58.0,34.4,30.05,West,264,0.0,3.0,41,0.00,,,0.00,Wunderground v.1.15,2013-01-30 00:55:00,
2013-01-29 20:05:00,57.8,34.2,30.04,West,264,0.0,3.0,41,0.00,,,0.00,Wunderground v.1.15,2013-01-30 01:05:00,
2013-01-29 20:10:00,57.8,33.6,30.04,West,264,0.0,3.0,40,0.00,,,0.00,Wunderground v.1.15,2013-01-30 01:10:00,
2013-01-29 20:15:00,57.7,32.2,30.05,West,264,0.0,3.0,38,0.00,,,0.00,Wunderground v.1.15,2013-01-30 01:15:00,
2013-01-29 20:20:00,57.7,32.2,30.04,West,264,0.0,3.0,38,0.00,,,0.00,Wunderground v.1.15,2013-01-30 01:20:00,
2013-01-29 20:25:00,57.6,31.5,30.04,West,264,0.0,3.0,37,0.00,,,0.00,Wunderground v.1.15,2013-01-30 01:25:00,
2013-01-29 20:30:00,57.6,31.5,30.04,West,264,0.0,3.0,37,0.00,,,0.00,Wunderground v.1.15,2013-01-30 01:30:00,
2013-01-29 20:35:00,57.5,30.7,30.04,West,264,0.0,3.0,36,0.00,,,0.00,Wunderground v.1.15,2013-01-30 01:35:00,
2013-01-29 20:40:00,57.5,25.5,30.05,West,264,0.0,3.0,29,0.00,,,0.00,Wunderground v.1.15,2013-01-30 01:40:00,
2013-01-29 20:45:00,57.5,22.8,30.05,West,264,0.0,3.0,26,0.00,,,0.00,Wunderground v.1.15,2013-01-30 01:45:00,
2013-01-29 20:50:00,57.3,22.7,30.05,West,264,0.0,3.0,26,0.00,,,0.00,Wunderground v.1.15,2013-01-30 01:50:00,
2013-01-29 20:55:00,57.2,22.6,30.06,West,264,0.0,3.0,26,0.00,,,0.00,Wunderground v.1.15,2013-01-30 01:55:00,
2013-01-29 21:00:00,57.1,20.6,30.05,West,264,0.0,0.0,24,0.00,,,0.00,Wunderground v.1.15,2013-01-30 02:00:00,
2013-01-29 21:10:00,56.8,17.2,30.05,West,264,0.0,0.0,21,0.00,,,0.00,Wunderground v.1.15,2013-01-30 02:10:00,
2013-01-29 21:15:00,56.8,14.9,30.04,West,264,0.0,0.0,19,0.00,,,0.00,Wunderground v.1.15,2013-01-30 02:15:00,
2013-01-29 21:20:00,56.8,14.9,30.04,West,264,0.0,0.0,19,0.00,,,0.00,Wunderground v.1.15,2013-01-30 02:20:00,
2013-01-29 21:25:00,56.7,14.8,30.04,West,264,0.0,0.0,19,0.00,,,0.00,Wunderground v.1.15,2013-01-30 02:25:00,
2013-01-29 21:30:00,56.6,14.8,30.04,West,264,0.0,0.0,19,0.00,,,0.00,Wunderground v.1.15,2013-01-30 02:30:00,
2013-01-29 21:40:00,56.5,13.4,30.03,NNW,342,0.0,0.0,18,0.00,,,0.00,Wunderground v.1.15,2013-01-30 02:40:00,
2013-01-29 21:45:00,56.4,13.4,30.03,NNW,342,0.0,0.0,18,0.00,,,0.00,Wunderground v.1.15,2013-01-30 02:45:00,
2013-01-29 21:50:00,56.4,12.1,30.02,NNW,342,0.0,0.0,17,0.00,,,0.00,Wunderground v.1.15,2013-01-30 02:50:00,
2013-01-29 21:55:00,56.4,12.1,30.02,NNW,342,0.0,0.0,17,0.00,,,0.00,Wunderground v.1.15,2013-01-30 02:55:00,
2013-01-29 22:00:00,56.3,12.0,30.01,NNW,342,0.0,0.0,17,0.00,,,0.00,Wunderground v.1.15,2013-01-30 03:00:00,
2013-01-29 22:10:00,56.3,12.0,30.02,NNW,342,0.0,0.0,17,0.00,,,0.00,Wunderground v.1.15,2013-01-30 03:10:00,
2013-01-29 22:15:00,56.3,12.0,30.02,NNW,342,0.0,0.0,17,0.00,,,0.00,Wunderground v.1.15,2013-01-30 03:15:00,
2013-01-29 22:20:00,56.3,12.0,30.02,NNW,342,0.0,0.0,17,0.00,,,0.00,Wunderground v.1.15,2013-01-30 03:20:00,
2013-01-29 22:25:00,56.2,11.9,30.02,NNW,342,0.0,0.0,17,0.55,,,0.03,Wunderground v.1.15,2013-01-30 03:25:00,
2013-01-29 22:30:00,56.1,11.8,30.01,NNW,342,0.0,0.0,17,0.10,,,0.03,Wunderground v.1.15,2013-01-30 03:30:00,
2013-01-29 22:35:00,56.2,11.9,30.01,NNW,343,0.0,0.0,17,0.05,,,0.03,Wunderground v.1.15,2013-01-30 03:35:00,
2013-01-29 22:45:00,56.4,12.1,30.01,NNW,343,0.0,0.0,17,0.00,,,0.03,Wunderground v.1.15,2013-01-30 03:45:00,
2013-01-29 22:50:00,56.3,12.0,30.01,NNW,343,0.0,0.0,17,0.00,,,0.04,Wunderground v.1.15,2013-01-30 03:50:00,
2013-01-29 22:55:00,56.2,11.9,30.00,NNW,343,0.0,0.0,17,0.00,,,0.04,Wunderground v.1.15,2013-01-30 03:55:00,
2013-01-29 23:00:00,56.2,11.9,30.00,NNW,343,0.0,0.0,17,0.00,,,0.04,Wunderground v.1.15,2013-01-30 04:00:00,
2013-01-29 23:05:00,56.3,12.0,30.00,NNW,343,0.0,0.0,17,0.04,,,0.05,Wunderground v.1.15,2013-01-30 04:05:00,
2013-01-29 23:15:00,56.6,12.2,30.00,NNW,343,0.0,0.0,17,0.05,,,0.06,Wunderground v.1.15,2013-01-30 04:15:00,
2013-01-29 23:20:00,56.6,12.2,30.00,NNW,343,0.0,0.0,17,0.11,,,0.06,Wunderground v.1.15,2013-01-30 04:20:00,
2013-01-29 23:25:00,56.8,12.4,30.00,NNW,343,0.0,0.0,17,0.11,,,0.07,Wunderground v.1.15,2013-01-30 04:25:00,
2013-01-29 23:30:00,56.9,13.8,30.00,NNW,343,0.0,0.0,18,0.07,,,0.08,Wunderground v.1.15,2013-01-30 04:30:00,
2013-01-29 23:35:00,57.1,13.9,29.99,NNW,343,0.0,0.0,18,0.07,,,0.08,Wunderground v.1.15,2013-01-30 04:35:00,
2013-01-29 23:40:00,57.2,14.0,29.99,WNW,291,0.0,0.0,18,0.05,,,0.08,Wunderground v.1.15,2013-01-30 04:40:00,
2013-01-29 23:50:00,57.6,14.3,30.00,South,182,0.0,0.0,18,0.00,,,0.08,Wunderground v.1.15,2013-01-30 04:50:00,
2013-01-29 23:55:00,57.6,14.3,30.00,WSW,246,0.0,0.0,18,0.00,,,0.08,Wunderground v.1.15,2013-01-30 04:55:00,